Portada
METAR-TAF:

METAR-TAF

Aeropuertos :

Jinotega, Nicaragua

latitud: 13-05N, longitud: 085-59W, altitud: 985 m

Observación

El informe se hizo hace 59 minutos, a las 17:00 UTC
Viento 6 kt del noroeste
Temperatura 25°C
Humedad 74%
Presión 1012 hPa
Visibilidad 10 km o más
Nubes dispersas a una altura de 1400 ft

METAR: MNJG 091700Z 32006KT 9999 SCT014 25/20 Q1012

Hora: 11:59 (17:59 UTC)


TAF: falta

Observaciones y pronósticos meteorológicos de más de 4000 aeropuertos (mensajes METAR y TAF).

Los puntos amarillos y rojos representan las estaciones disponibles.

Ponga el ratón en el punto deseado para ver el nombre de la estación.

Haga clic para ver las observaciones y los pronósticos meteorológicos.

Para cambiar el mapa : haga clic en los botones verdes con una cruz de color negro para hacer un zoom, en el botón verde con un guión para alejar o en las flechas verdes para mapas adyacentes.


METAR-TAF: